M I D A S
Marine Information and Data Acquisition System
Tripno 488 of the Zeeleeuw from 2003-04-09 06:23:00 to 2003-04-09 13:32:44
Back to CruiseResearch ActivitiesStationsMapUnderway DataData graphs

EquipmentUnitsComments
TimeDGPSUTC
LatitudeDGPSDM.mWGS84
LongitudeDGPSDM.mWGS84
SpeedMeteo Stationm/sRelative wind speed
DirectionMeteo StationdegRelative wind direction
TemperatureMeteo Stationdeg CelciusAir temperature
PressureMeteo StationPaAtmospheric pressure
HumidityMeteo Station%Relative humidity
Missing or incorrect values are displayed as -999
Metereological data collected by the RV Zeeleeuw from 2003-04-09 06:23:00 to 2003-04-09 13:32:44
Time Latitude Longitude Speed Direction Temperature Pressure Humidity
2003-04-09 06:24 51°13.623 2°55.988 1.9 83 1.7 101810 67
2003-04-09 06:25 51°13.663 2°55.857 2.2 109 1.7 101810 67
2003-04-09 06:26 51°13.695 2°55.754 2.1 12 1.6 101810 67
2003-04-09 06:27 51°13.704 2°55.757 2.1 294 1.6 101810 66
2003-04-09 06:28 51°13.695 2°55.736 3.2 277 1.6 101810 68
2003-04-09 06:29 51°13.709 2°55.718 3.1 256 1.5 101810 67
2003-04-09 06:30 51°13.827 2°55.627 4.1 330 1.4 101810 66
2003-04-09 06:31 51°13.935 2°55.543 5.1 281 1.4 101810 67
2003-04-09 06:32 51°14.049 2°55.465 3.6 312 1.4 101820 68
2003-04-09 06:33 51°14.168 2°55.378 5 277 1.4 101820 67
2003-04-09 06:34 51°14.277 2°55.231 3.1 271 1.4 101820 67
2003-04-09 06:35 51°14.359 2°55.037 5 252 1.5 101820 66
2003-04-09 06:36 51°14.455 2°54.838 4.1 262 1.6 101820 66
2003-04-09 06:37 51°14.585 2°54.718 7.3 279 1.7 101810 66
2003-04-09 06:38 51°14.734 2°54.672 7.9 279 1.9 101810 70
2003-04-09 06:39 51°14.875 2°54.638 8.6 281 1.9 101800 69
2003-04-09 06:40 51°14.97 2°54.65 8 284 2 101800 65
2003-04-09 06:41 51°15.028 2°54.672 6.7 284 2.1 101800 66
2003-04-09 06:42 51°15.08 2°54.69 8.1 282 2.2 101800 68
2003-04-09 06:43 51°15.161 2°54.736 12.3 315 2.2 101790 65
2003-04-09 06:44 51°15.304 2°54.939 13.5 336 2.2 101780 67
2003-04-09 06:45 51°15.455 2°55.221 14.8 330 2.3 101790 66
2003-04-09 06:46 51°15.608 2°55.508 15.8 332 2.3 101790 64
2003-04-09 06:47 51°15.757 2°55.8 15.2 340 2.3 101800 66
2003-04-09 06:48 51°15.915 2°56.089 16.4 339 2.4 101800 65
2003-04-09 06:49 51°16.066 2°56.389 16.5 338 2.4 101790 66
2003-04-09 06:50 51°16.215 2°56.689 16.2 336 2.4 101790 67
2003-04-09 06:51 51°16.359 2°56.986 16 334 2.4 101790 68
2003-04-09 06:52 51°16.504 2°57.279 16.5 337 2.4 101790 67
2003-04-09 06:53 51°16.64 2°57.56 16.4 344 2.3 101790 66
2003-04-09 06:54 51°16.787 2°57.869 15.1 336 2.4 101780 66
2003-04-09 06:55 51°16.926 2°58.174 15.5 339 2.4 101790 64
2003-04-09 06:56 51°17.062 2°58.482 15.6 341 2.4 101800 62
2003-04-09 06:57 51°17.191 2°58.794 14.7 337 2.5 101790 60
2003-04-09 06:58 51°17.322 2°59.106 14.4 337 2.5 101800 57
2003-04-09 06:59 51°17.451 2°59.414 15.6 341 2.6 101800 59
2003-04-09 07:00 51°17.575 2°59.727 15.1 337 2.6 101810 61
2003-04-09 07:01 51°17.7 3°0.06 15.3 339 2.6 101810 56
2003-04-09 07:02 51°17.795 3°0.404 15.5 344 2.6 101820 55
2003-04-09 07:03 51°17.893 3°0.743 15.7 343 2.6 101810 58
2003-04-09 07:04 51°17.999 3°1.088 14.8 342 2.7 101820 58
2003-04-09 07:05 51°18.106 3°1.425 14.6 339 2.7 101810 53
2003-04-09 07:06 51°18.22 3°1.755 14.8 341 2.7 101800 53
2003-04-09 07:07 51°18.334 3°2.084 15.4 341 2.7 101820 55
2003-04-09 07:08 51°18.447 3°2.414 14.7 332 2.7 101800 52
2003-04-09 07:09 51°18.558 3°2.745 15.1 335 2.7 101820 51
2003-04-09 07:10 51°18.654 3°3.082 15.2 343 2.7 101810 51
2003-04-09 07:11 51°18.749 3°3.419 13.7 345 2.8 101810 51
2003-04-09 07:12 51°18.789 3°3.653 10.3 359 2.8 101810 51
2003-04-09 07:13 51°18.766 3°3.767 7.9 22 2.7 101800 46
2003-04-09 07:14 51°18.739 3°3.811 7.6 47 2.7 101810 50
2003-04-09 07:15 51°18.74 3°3.808 7.9 69 2.8 101800 52
2003-04-09 07:16 51°18.75 3°3.798 7.8 92 2.8 101810 53
2003-04-09 07:17 51°18.754 3°3.787 7 89 2.9 101810 54
2003-04-09 07:18 51°18.755 3°3.777 6.3 100 2.9 101810 49
2003-04-09 07:19 51°18.756 3°3.766 6.3 102 2.9 101810 51
2003-04-09 07:20 51°18.753 3°3.757 6.4 82 2.8 101800 47
2003-04-09 07:21 51°18.752 3°3.749 7.2 88 2.8 101790 45
2003-04-09 07:22 51°18.749 3°3.741 7.7 66 2.8 101790 50
2003-04-09 07:23 51°18.744 3°3.732 7.5 69 2.9 101790 51
2003-04-09 07:24 51°18.744 3°3.725 7 83 2.9 101800 49
2003-04-09 07:25 51°18.714 3°3.714 9.5 84 3 101810 52
2003-04-09 07:26 51°18.694 3°3.604 6.2 214 2.9 101820 46
2003-04-09 07:27 51°18.789 3°3.578 10.8 311 2.8 101830 44
2003-04-09 07:28 51°18.938 3°3.749 12.2 326 2.8 101760 47
2003-04-09 07:29 51°19.085 3°3.97 14.9 336 2.8 101770 47
2003-04-09 07:30 51°19.21 3°4.195 12.3 301 2.8 101760 47
2003-04-09 07:31 51°19.299 3°4.164 5.5 223 2.7 101830 40
2003-04-09 07:32 51°19.295 3°4.051 5.9 119 2.8 101830 46
2003-04-09 07:33 51°19.263 3°3.981 5.2 100 2.8 101820 42
2003-04-09 07:34 51°19.233 3°3.946 9.4 90 2.8 101810 47
2003-04-09 07:35 51°19.206 3°3.921 9.5 93 2.9 101810 46
2003-04-09 07:36 51°19.165 3°3.879 8.7 98 2.9 101810 45
2003-04-09 07:37 51°19.131 3°3.788 5.5 120 2.9 101820 45
2003-04-09 07:38 51°19.089 3°3.699 6.9 102 2.9 101810 43
2003-04-09 07:39 51°19.046 3°3.629 6.7 109 2.8 101810 39
2003-04-09 07:40 51°19.023 3°3.576 7.9 123 2.8 101820 42
2003-04-09 07:41 51°19.005 3°3.519 8.2 121 2.8 101820 46
2003-04-09 07:42 51°18.984 3°3.468 9 124 2.8 101820 44
2003-04-09 07:43 51°18.967 3°3.417 8.4 120 2.8 101820 44
2003-04-09 07:44 51°18.95 3°3.365 8.4 127 2.7 101820 38
2003-04-09 07:45 51°18.94 3°3.315 8.4 135 2.8 101820 46
2003-04-09 07:46 51°18.936 3°3.27 6.5 145 2.8 101820 42
2003-04-09 07:47 51°18.932 3°3.228 6 140 2.8 101820 45
2003-04-09 07:48 51°18.928 3°3.189 7.2 141 2.9 101830 45
2003-04-09 07:49 51°18.924 3°3.154 7.5 141 3.1 101820 52
2003-04-09 07:50 51°18.922 3°3.124 6.8 135 3 101810 41
2003-04-09 07:51 51°18.92 3°3.097 6.4 157 3.1 101820 47
2003-04-09 07:52 51°18.92 3°3.072 6 168 3 101820 44
2003-04-09 07:53 51°18.92 3°3.051 9.5 187 3.1 101820 42
2003-04-09 07:54 51°18.922 3°3.026 8.7 208 2.9 101830 36
2003-04-09 07:55 51°18.929 3°2.993 6.9 208 2.8 101820 44
2003-04-09 07:56 51°18.952 3°2.935 7.5 220 2.9 101820 44
2003-04-09 07:57 51°18.992 3°2.85 7.5 225 2.9 101830 41
2003-04-09 07:58 51°19.028 3°2.742 7 213 3 101820 44
2003-04-09 07:59 51°19.059 3°2.664 7.6 225 3 101820 43
2003-04-09 08:00 51°19.084 3°2.618 9.2 238 3.1 101820 46
2003-04-09 08:01 51°19.106 3°2.588 8.3 233 3.1 101820 47
2003-04-09 08:02 51°19.125 3°2.566 10.7 261 3.1 101820 44
2003-04-09 08:03 51°19.155 3°2.573 10.6 302 3 101800 39
2003-04-09 08:04 51°19.168 3°2.617 8.7 345 2.9 101790 38
2003-04-09 08:05 51°19.164 3°2.656 7.6 339 2.9 101800 40
2003-04-09 08:06 51°19.164 3°2.69 8.5 337 3 101790 39
2003-04-09 08:07 51°19.17 3°2.713 8.4 323 3 101790 41
2003-04-09 08:08 51°19.184 3°2.731 9.4 297 3 101800 44
2003-04-09 08:09 51°19.202 3°2.74 9.6 303 3.1 101780 44
2003-04-09 08:10 51°19.219 3°2.747 11.4 303 3.2 101790 46
2003-04-09 08:11 51°19.238 3°2.751 9.2 287 3.2 101780 40
2003-04-09 08:12 51°19.254 3°2.741 10.6 275 3.1 101790 39
2003-04-09 08:13 51°19.266 3°2.723 8.9 267 3.1 101800 46
2003-04-09 08:14 51°19.292 3°2.699 8.3 238 3.2 101800 49
2003-04-09 08:15 51°19.311 3°2.584 6.5 131 3.2 101810 44
2003-04-09 08:16 51°19.26 3°2.493 8.4 80 3.2 101830 39
2003-04-09 08:17 51°19.218 3°2.442 10.2 91 3.2 101830 41
2003-04-09 08:18 51°19.185 3°2.41 11.2 82 3.2 101820 39
2003-04-09 08:19 51°19.155 3°2.384 12.7 74 3.2 101820 41
2003-04-09 08:20 51°19.129 3°2.357 10.7 73 3.2 101820 44
2003-04-09 08:21 51°19.106 3°2.333 8.7 77 3.2 101810 45
2003-04-09 08:22 51°19.082 3°2.312 9.6 68 3.2 101820 39
2003-04-09 08:23 51°19.062 3°2.292 9.3 65 3.3 101810 40
2003-04-09 08:24 51°19.045 3°2.269 11.4 62 3.4 101810 42
2003-04-09 08:25 51°19.03 3°2.247 9.9 65 3.4 101810 42
2003-04-09 08:26 51°18.991 3°2.259 10.3 25 3.3 101810 41
2003-04-09 08:27 51°19.004 3°2.388 13.7 321 3.4 101790 43
2003-04-09 08:28 51°19.129 3°2.487 13.4 312 3.2 101780 39
2003-04-09 08:29 51°19.269 3°2.61 13 323 3.2 101770 43
2003-04-09 08:30 51°19.412 3°2.735 12.5 315 3 101770 40
2003-04-09 08:31 51°19.556 3°2.859 13.7 316 3 101780 46
2003-04-09 08:32 51°19.7 3°2.982 13.4 322 2.9 101780 37
2003-04-09 08:33 51°19.844 3°3.108 13.6 312 3 101760 41
2003-04-09 08:34 51°19.985 3°3.231 11.6 306 3.1 101770 47
2003-04-09 08:35 51°20.131 3°3.358 15 312 3.2 101780 44
2003-04-09 08:36 51°20.275 3°3.484 13.1 311 3.1 101760 38
2003-04-09 08:37 51°20.412 3°3.6 12.6 321 3.1 101770 40
2003-04-09 08:38 51°20.466 3°3.683 10.7 324 3 101780 36
2003-04-09 08:39 51°20.491 3°3.723 8.8 315 3 101790 39
2003-04-09 08:40 51°20.509 3°3.733 8.6 317 2.9 101790 36
2003-04-09 08:41 51°20.521 3°3.731 8.5 308 3 101780 41
2003-04-09 08:42 51°20.53 3°3.713 6.6 293 3 101790 39
2003-04-09 08:43 51°20.544 3°3.722 8.7 335 3.1 101790 45
2003-04-09 08:44 51°20.535 3°3.746 8.7 15 3.2 101790 40
2003-04-09 08:45 51°20.515 3°3.739 8.4 316 3.3 101790 44
2003-04-09 08:46 51°20.496 3°3.717 9.1 319 3.3 101790 36
2003-04-09 08:47 51°20.479 3°3.686 8.1 53 3.4 101790 46
2003-04-09 08:48 51°20.467 3°3.653 8.4 66 3.3 101790 37
2003-04-09 08:49 51°20.454 3°3.617 9.7 63 3.4 101780 39
2003-04-09 08:50 51°20.44 3°3.582 6.9 76 3.4 101790 35
2003-04-09 08:51 51°20.429 3°3.549 9.2 73 3.5 101780 44
2003-04-09 08:52 51°20.416 3°3.508 8.4 77 3.4 101780 39
2003-04-09 08:53 51°20.402 3°3.468 8.6 82 3.4 101780 39
2003-04-09 08:54 51°20.39 3°3.426 8.7 89 3.3 101780 38
2003-04-09 08:55 51°20.378 3°3.387 7.4 90 3.2 101790 39
2003-04-09 08:56 51°20.365 3°3.349 11.5 92 3.4 101780 48
2003-04-09 08:57 51°20.352 3°3.31 10.1 94 3.4 101780 44
2003-04-09 08:58 51°20.339 3°3.271 6.8 80 3.2 101790 34
2003-04-09 08:59 51°20.325 3°3.232 10.1 90 3.3 101780 45
2003-04-09 09:00 51°20.315 3°3.192 9.2 82 3.3 101780 37
2003-04-09 09:01 51°20.301 3°3.15 7.3 79 3.3 101780 37
2003-04-09 09:02 51°20.287 3°3.109 9.3 89 3.3 101770 38
2003-04-09 09:03 51°20.27 3°3.059 7.1 103 3.3 101760 36
2003-04-09 09:04 51°20.246 3°2.989 8.1 121 3.4 101780 36
2003-04-09 09:05 51°20.241 3°2.884 4.3 176 3.3 101790 38
2003-04-09 09:06 51°20.276 3°2.802 7 244 3.4 101780 41
2003-04-09 09:07 51°20.328 3°2.791 8 289 3.4 101770 40
2003-04-09 09:08 51°20.391 3°2.873 11.6 308 3.4 101760 39
2003-04-09 09:09 51°20.466 3°2.985 11.1 307 3.3 101760 35
2003-04-09 09:10 51°20.551 3°3.095 13.7 328 3.3 101750 39
2003-04-09 09:11 51°20.639 3°3.232 13.2 329 3.3 101740 34
2003-04-09 09:12 51°20.735 3°3.415 13 326 3.2 101730 36
2003-04-09 09:13 51°20.823 3°3.615 12.3 335 3.3 101750 40
2003-04-09 09:14 51°20.911 3°3.816 11.9 331 3.4 101740 40
2003-04-09 09:15 51°20.976 3°3.93 11.4 330 3.4 101730 38
2003-04-09 09:16 51°20.996 3°3.988 9.5 332 3.3 101750 34
2003-04-09 09:17 51°21.008 3°4.016 9.4 322 3.3 101750 36
2003-04-09 09:18 51°21.024 3°4.023 7.6 314 3.3 101760 37
2003-04-09 09:19 51°21.055 3°4.035 9.5 310 3.2 101780 37
2003-04-09 09:20 51°21.089 3°4.09 9.1 341 3.2 101750 39
2003-04-09 09:21 51°21.11 3°4.175 8 334 3.3 101750 36
2003-04-09 09:22 51°21.138 3°4.251 11 321 3.5 101740 44
2003-04-09 09:23 51°21.169 3°4.3 9.1 331 3.4 101750 39
2003-04-09 09:24 51°21.181 3°4.342 10.5 334 3.5 101760 41
2003-04-09 09:25 51°21.193 3°4.383 9.6 345 3.6 101750 46
2003-04-09 09:26 51°21.2 3°4.438 9.5 347 3.6 101760 37
2003-04-09 09:27 51°21.205 3°4.502 9.6 335 3.6 101760 40
2003-04-09 09:28 51°21.209 3°4.567 8.5 331 3.6 101760 37
2003-04-09 09:29 51°21.212 3°4.634 10.1 340 3.5 101750 38
2003-04-09 09:30 51°21.215 3°4.704 9.2 339 3.6 101770 41
2003-04-09 09:31 51°21.227 3°4.762 10.3 329 3.7 101760 39
2003-04-09 09:32 51°21.238 3°4.825 10.8 341 3.6 101750 40
2003-04-09 09:33 51°21.246 3°4.886 9.9 338 3.6 101750 38
2003-04-09 09:34 51°21.258 3°4.948 8.3 342 3.6 101760 34
2003-04-09 09:35 51°21.269 3°5.011 8.7 348 3.6 101770 40
2003-04-09 09:36 51°21.285 3°5.073 8 343 3.7 101770 43
2003-04-09 09:37 51°21.306 3°5.137 7.9 344 3.6 101770 41
2003-04-09 09:38 51°21.321 3°5.199 7.8 337 3.7 101770 41
2003-04-09 09:39 51°21.342 3°5.255 9 332 3.6 101740 38
2003-04-09 09:40 51°21.358 3°5.316 8.1 343 3.6 101750 43
2003-04-09 09:41 51°21.371 3°5.378 7.9 334 3.6 101750 41
2003-04-09 09:42 51°21.393 3°5.435 9.5 323 3.6 101750 40
2003-04-09 09:43 51°21.416 3°5.491 9.5 334 3.5 101740 39
2003-04-09 09:44 51°21.429 3°5.553 7.2 345 3.5 101760 39
2003-04-09 09:45 51°21.44 3°5.618 7.8 342 3.6 101760 43
2003-04-09 09:46 51°21.457 3°5.68 10.1 345 3.7 101760 41
2003-04-09 09:47 51°21.474 3°5.747 9.5 353 3.8 101760 41
2003-04-09 09:48 51°21.488 3°5.806 9.3 346 3.7 101760 38
2003-04-09 09:49 51°21.51 3°5.866 10.3 342 3.7 101750 39
2003-04-09 09:50 51°21.53 3°5.926 9.4 349 3.8 101760 37
2003-04-09 09:51 51°21.539 3°5.989 7.9 349 3.7 101750 37
2003-04-09 09:52 51°21.553 3°6.055 8.5 335 3.8 101760 41
2003-04-09 09:53 51°21.577 3°6.111 9.7 338 3.8 101750 41
2003-04-09 09:54 51°21.591 3°6.161 8.5 356 3.8 101750 40
2003-04-09 09:56 51°21.557 3°6.221 8.7 17 4 101760 40
2003-04-09 09:57 51°21.539 3°6.237 7.9 27 4.1 101750 37
2003-04-09 09:58 51°21.489 3°6.297 8.8 28 4.2 101750 42
2003-04-09 09:59 51°21.446 3°6.343 6.9 13 4.1 101760 36
2003-04-09 10:00 51°21.41 3°6.36 7 30 4.1 101760 35
2003-04-09 10:01 51°21.4 3°6.371 7.5 34 4.2 101760 41
2003-04-09 10:02 51°21.357 3°6.351 7.6 44 4.2 101750 40
2003-04-09 10:03 51°21.335 3°6.326 8.1 72 4.2 101740 41
2003-04-09 10:04 51°21.312 3°6.297 8.4 73 4.1 101750 40
2003-04-09 10:05 51°21.289 3°6.267 8.4 75 4 101750 42
2003-04-09 10:06 51°21.27 3°6.234 7.6 81 3.9 101750 40
2003-04-09 10:07 51°21.252 3°6.199 9.1 76 4 101750 47
2003-04-09 10:08 51°21.233 3°6.162 7.3 77 4 101740 45
2003-04-09 10:09 51°21.215 3°6.125 7.5 71 4.1 101750 46
2003-04-09 10:10 51°21.199 3°6.086 7 81 4.1 101740 40
2003-04-09 10:11 51°21.181 3°6.047 5.7 85 4.1 101750 39
2003-04-09 10:12 51°21.163 3°6.01 4.3 99 4 101750 38
2003-04-09 10:13 51°21.145 3°5.978 5.8 81 4 101750 41
2003-04-09 10:14 51°21.126 3°5.936 5.7 74 4 101750 40
2003-04-09 10:15 51°21.105 3°5.892 6 105 4.1 101750 48
2003-04-09 10:16 51°21.086 3°5.851 5.2 108 4.1 101750 40
2003-04-09 10:17 51°21.07 3°5.809 5 115 4.1 101750 43
2003-04-09 10:18 51°21.049 3°5.767 5.5 107 4.1 101750 47
2003-04-09 10:19 51°21.028 3°5.724 5.2 106 4 101740 41
2003-04-09 10:20 51°21.007 3°5.682 5.5 107 4 101740 40
2003-04-09 10:21 51°20.986 3°5.64 6.1 105 4 101740 46
2003-04-09 10:22 51°20.964 3°5.601 4.6 107 4 101740 50
2003-04-09 10:23 51°20.942 3°5.56 4.3 108 4 101740 43
2003-04-09 10:24 51°20.921 3°5.522 6.5 101 3.9 101740 41
2003-04-09 10:25 51°20.895 3°5.477 8.1 120 4 101740 50
2003-04-09 10:26 51°20.856 3°5.378 5.9 191 4 101750 50
2003-04-09 10:27 51°20.83 3°5.149 3.2 224 4 101750 44
2003-04-09 10:28 51°20.8 3°4.848 3.4 213 4 101740 46
2003-04-09 10:29 51°20.742 3°4.546 1.9 185 4 101750 43
2003-04-09 10:30 51°20.682 3°4.241 3.6 213 4 101750 47
2003-04-09 10:31 51°20.623 3°3.932 2.7 202 4 101750 45
2003-04-09 10:32 51°20.566 3°3.626 2.8 216 4 101750 41
2003-04-09 10:33 51°20.51 3°3.321 2.3 202 4 101750 42
2003-04-09 10:34 51°20.455 3°3.018 3.4 224 4 101750 47
2003-04-09 10:35 51°20.399 3°2.714 2.1 200 4.1 101750 48
2003-04-09 10:36 51°20.342 3°2.412 1.5 190 4.1 101750 44
2003-04-09 10:37 51°20.286 3°2.112 1.7 172 4.1 101750 47
2003-04-09 10:38 51°20.23 3°1.809 2.5 232 4.2 101750 43
2003-04-09 10:39 51°20.173 3°1.508 2.4 207 4.3 101750 44
2003-04-09 10:40 51°20.116 3°1.206 2.2 213 4.3 101740 47
2003-04-09 10:41 51°20.06 3°0.9 3.6 215 4.3 101740 47
2003-04-09 10:42 51°20.003 3°0.596 2.3 211 4.3 101730 44
2003-04-09 10:43 51°19.944 3°0.287 1.9 229 4.3 101740 45
2003-04-09 10:44 51°19.886 2°59.979 2.6 210 4.4 101740 46
2003-04-09 10:45 51°19.829 2°59.67 3.5 114 4.3 101730 45
2003-04-09 10:46 51°19.77 2°59.359 2.7 216 4.4 101740 50
2003-04-09 10:47 51°19.712 2°59.05 3.4 195 4.4 101740 50
2003-04-09 10:48 51°19.652 2°58.738 3.2 208 4.3 101740 45
2003-04-09 10:49 51°19.594 2°58.432 3.8 211 4.3 101730 43
2003-04-09 10:50 51°19.535 2°58.125 4.2 201 4.3 101730 49
2003-04-09 10:51 51°19.475 2°57.816 4.6 220 4.2 101730 51
2003-04-09 10:52 51°19.415 2°57.507 4.5 218 4.2 101730 44
2003-04-09 10:53 51°19.355 2°57.199 4.4 207 4.1 101730 43
2003-04-09 10:54 51°19.293 2°56.891 3.3 207 4 101730 49
2003-04-09 10:55 51°19.233 2°56.582 4.6 207 4.1 101730 48
2003-04-09 10:56 51°19.173 2°56.276 5 193 4.1 101720 47
2003-04-09 10:57 51°19.114 2°55.973 4.8 203 4.1 101720 49
2003-04-09 10:58 51°19.054 2°55.67 4.7 188 4 101720 44
2003-04-09 10:59 51°18.992 2°55.366 3.6 214 4 101730 49
2003-04-09 11:00 51°18.925 2°55.063 3.1 214 4 101720 49
2003-04-09 11:01 51°18.858 2°54.76 4.6 212 4 101720 54
2003-04-09 11:02 51°18.792 2°54.456 4.7 212 4.1 101720 49
2003-04-09 11:03 51°18.725 2°54.152 4 218 4.1 101710 44
2003-04-09 11:04 51°18.651 2°53.852 3.4 222 4.1 101720 46
2003-04-09 11:05 51°18.573 2°53.553 4.4 196 4.1 101720 49
2003-04-09 11:06 51°18.483 2°53.263 3.6 195 4.1 101720 49
2003-04-09 11:07 51°18.393 2°52.971 2.9 194 4.1 101710 43
2003-04-09 11:08 51°18.287 2°52.694 2.8 151 4 101720 44
2003-04-09 11:09 51°18.133 2°52.492 5.1 107 4.1 101720 45
2003-04-09 11:10 51°17.944 2°52.407 6.7 80 4.1 101710 47
2003-04-09 11:11 51°17.75 2°52.372 9.8 80 4.2 101710 49
2003-04-09 11:12 51°17.55 2°52.342 7 74 4.4 101710 47
2003-04-09 11:13 51°17.361 2°52.308 10.3 95 4.4 101690 45
2003-04-09 11:14 51°17.169 2°52.238 4.1 103 4.4 101690 45
2003-04-09 11:15 51°16.978 2°52.156 10 92 4.4 101690 48
2003-04-09 11:16 51°16.787 2°52.078 5.4 106 4.4 101690 46
2003-04-09 11:17 51°16.598 2°52.001 6.4 99 4.4 101680 45
2003-04-09 11:18 51°16.411 2°51.923 6.1 102 4.4 101690 47
2003-04-09 11:19 51°16.223 2°51.842 7.5 102 4.4 101680 48
2003-04-09 11:20 51°16.038 2°51.759 5.6 96 4.3 101680 44
2003-04-09 11:21 51°15.849 2°51.672 5.5 107 4.3 101670 46
2003-04-09 11:22 51°15.66 2°51.594 8.3 88 4.4 101670 49
2003-04-09 11:23 51°15.469 2°51.522 6.6 95 4.4 101660 45
2003-04-09 11:24 51°15.278 2°51.466 6.9 96 4.5 101670 48
2003-04-09 11:25 51°15.085 2°51.408 7.7 101 4.4 101660 47
2003-04-09 11:26 51°14.946 2°51.323 5.8 156 4.4 101680 43
2003-04-09 11:27 51°14.881 2°51.207 6 187 4.6 101670 47
2003-04-09 11:28 51°14.834 2°51.113 6.8 153 4.5 101670 44
2003-04-09 11:29 51°14.782 2°51.044 9.5 135 4.4 101660 48
2003-04-09 11:30 51°14.73 2°50.986 7.1 142 4.3 101650 46
2003-04-09 11:31 51°14.663 2°50.903 5.7 188 4.3 101660 47
2003-04-09 11:32 51°14.616 2°50.769 7.9 211 4.3 101660 45
2003-04-09 11:33 51°14.575 2°50.626 8.1 201 4.2 101670 44
2003-04-09 11:34 51°14.541 2°50.515 9.1 210 4.2 101670 45
2003-04-09 11:35 51°14.513 2°50.413 9.4 217 4.2 101670 48
2003-04-09 11:36 51°14.491 2°50.329 9.9 210 4.2 101660 45
2003-04-09 11:37 51°14.468 2°50.251 11.1 201 4.3 101650 53
2003-04-09 11:38 51°14.443 2°50.173 8.7 203 4.2 101660 42
2003-04-09 11:39 51°14.418 2°50.098 10.2 192 4.2 101660 47
2003-04-09 11:40 51°14.39 2°50.028 10.2 186 4.1 101660 43
2003-04-09 11:41 51°14.359 2°49.956 7.8 178 4.1 101650 43
2003-04-09 11:42 51°14.327 2°49.885 7.9 178 4.2 101650 47
2003-04-09 11:43 51°14.296 2°49.812 10.3 196 4.2 101650 49
2003-04-09 11:44 51°14.266 2°49.74 8.7 181 4.2 101650 44
2003-04-09 11:45 51°14.235 2°49.67 6.9 171 4.2 101640 48
2003-04-09 11:46 51°14.202 2°49.597 6.5 160 4.2 101640 45
2003-04-09 11:47 51°14.17 2°49.528 5.6 161 4.4 101650 52
2003-04-09 11:48 51°14.136 2°49.46 5.6 178 4.4 101640 47
2003-04-09 11:49 51°14.1 2°49.395 6.3 174 4.5 101650 47
2003-04-09 11:50 51°14.064 2°49.326 9.7 185 4.4 101650 45
2003-04-09 11:51 51°14.031 2°49.257 6.7 178 4.3 101640 50
2003-04-09 11:52 51°13.997 2°49.189 7.7 176 4.2 101640 44
2003-04-09 11:53 51°13.965 2°49.12 8 185 4.1 101640 44
2003-04-09 11:54 51°13.934 2°49.05 8.7 195 4.2 101640 49
2003-04-09 11:55 51°13.904 2°48.981 8 191 4.1 101640 47
2003-04-09 11:56 51°13.875 2°48.908 10.1 199 4.1 101640 47
2003-04-09 11:57 51°13.844 2°48.837 8.5 182 4.1 101640 47
2003-04-09 11:58 51°13.809 2°48.772 5.4 166 4.1 101630 45
2003-04-09 11:59 51°13.773 2°48.714 5 181 4.5 101620 52
2003-04-09 12:00 51°13.735 2°48.655 4.8 170 4.6 101620 43
2003-04-09 12:01 51°13.696 2°48.593 6.1 173 4.6 101620 43
2003-04-09 12:02 51°13.657 2°48.534 8.2 162 4.6 101620 45
2003-04-09 12:03 51°13.616 2°48.473 7.9 158 4.5 101610 48
2003-04-09 12:04 51°13.575 2°48.415 5.5 164 4.4 101610 51
2003-04-09 12:05 51°13.538 2°48.354 5.9 181 4.5 101610 48
2003-04-09 12:06 51°13.503 2°48.29 8.6 188 4.5 101610 44
2003-04-09 12:07 51°13.473 2°48.226 8.8 208 4.4 101620 51
2003-04-09 12:08 51°13.45 2°48.158 11.3 223 4.3 101620 46
2003-04-09 12:09 51°13.428 2°48.1 9.7 233 4.3 101610 47
2003-04-09 12:10 51°13.416 2°48.021 10.9 237 4.4 101610 50
2003-04-09 12:11 51°13.42 2°47.907 9.1 249 4.4 101610 46
2003-04-09 12:12 51°13.422 2°47.819 9.6 251 4.3 101620 44
2003-04-09 12:13 51°13.419 2°47.752 10.3 259 4.4 101610 48
2003-04-09 12:14 51°13.416 2°47.69 9.8 268 4.4 101610 45
2003-04-09 12:15 51°13.422 2°47.632 10.9 286 4.5 101590 47
2003-04-09 12:16 51°13.436 2°47.585 10 303 4.4 101600 46
2003-04-09 12:17 51°13.451 2°47.562 9.5 336 4.3 101570 46
2003-04-09 12:18 51°13.456 2°47.555 11.5 343 4.4 101580 50
2003-04-09 12:19 51°13.447 2°47.539 10.5 8 4.4 101570 45
2003-04-09 12:20 51°13.426 2°47.51 10.8 34 4.5 101560 46
2003-04-09 12:21 51°13.402 2°47.471 13.3 64 4.5 101560 47
2003-04-09 12:22 51°13.379 2°47.428 10.8 76 4.5 101560 49
2003-04-09 12:23 51°13.357 2°47.388 6.9 102 4.5 101570 50
2003-04-09 12:24 51°13.331 2°47.352 7.6 99 4.5 101580 49
2003-04-09 12:25 51°13.305 2°47.322 8.9 102 4.5 101570 49
2003-04-09 12:26 51°13.278 2°47.295 9.7 102 4.4 101570 48
2003-04-09 12:27 51°13.251 2°47.268 11.3 90 4.4 101570 48
2003-04-09 12:28 51°13.225 2°47.243 11.3 85 4.5 101570 52
2003-04-09 12:29 51°13.198 2°47.219 13.1 82 4.6 101560 50
2003-04-09 12:30 51°13.17 2°47.193 11.1 92 4.6 101550 45
2003-04-09 12:31 51°13.144 2°47.17 11.4 88 4.6 101560 46
2003-04-09 12:32 51°13.117 2°47.148 11.9 86 4.5 101560 48
2003-04-09 12:33 51°13.092 2°47.126 14.7 77 4.6 101550 53
2003-04-09 12:34 51°13.066 2°47.105 11.2 70 4.6 101550 46
2003-04-09 12:35 51°13.041 2°47.08 11.6 66 4.6 101560 44
2003-04-09 12:36 51°13.02 2°47.058 12.5 75 4.6 101550 46
2003-04-09 12:37 51°12.994 2°47.033 10.1 82 4.7 101550 51
2003-04-09 12:38 51°12.971 2°47.011 9.3 75 4.7 101550 49
2003-04-09 12:39 51°12.943 2°46.989 10.6 77 4.8 101540 48
2003-04-09 12:40 51°12.922 2°46.968 14.4 86 4.8 101570 45
2003-04-09 12:41 51°12.897 2°46.945 12 79 4.8 101570 44
2003-04-09 12:42 51°12.87 2°46.922 10.4 69 4.8 101570 47
2003-04-09 12:43 51°12.845 2°46.904 11 92 4.9 101560 51
2003-04-09 12:44 51°12.803 2°46.902 9.8 120 4.9 101560 49
2003-04-09 12:45 51°12.743 2°46.871 7 157 4.8 101570 43
2003-04-09 12:46 51°12.705 2°46.779 9.6 237 4.7 101550 45
2003-04-09 12:47 51°12.726 2°46.673 11 287 4.7 101540 45
2003-04-09 12:48 51°12.805 2°46.638 14.9 337 4.5 101520 46
2003-04-09 12:49 51°12.9 2°46.751 16 348 4.6 101540 46
2003-04-09 12:50 51°13.039 2°46.932 18 352 4.6 101550 43
2003-04-09 12:51 51°13.182 2°47.151 17.7 350 4.6 101550 46
2003-04-09 12:52 51°13.328 2°47.376 18 358 4.7 101540 51
2003-04-09 12:53 51°13.46 2°47.617 15.6 4 4.7 101530 45
2003-04-09 12:54 51°13.567 2°47.892 18.6 2 4.8 101530 47
2003-04-09 12:55 51°13.665 2°48.172 18.2 4 4.8 101540 45
2003-04-09 12:56 51°13.771 2°48.444 16.9   4.8 101520 45
2003-04-09 12:57 51°13.879 2°48.715 16.5 2 4.9 101520 44
2003-04-09 12:58 51°13.973 2°49.001 16.9 1 4.9 101530 49
2003-04-09 12:59 51°14.058 2°49.294 17.2 7 4.9 101530 52
2003-04-09 13:00 51°14.139 2°49.59 15.5 9 4.9 101520 46
2003-04-09 13:01 51°14.214 2°49.889 16.3 14 4.9 101500 45
2003-04-09 13:02 51°14.285 2°50.193 17.2 1 4.9 101510 43
2003-04-09 13:03 51°14.355 2°50.491 17 10 4.9 101510 45
2003-04-09 13:04 51°14.425 2°50.795 19.6 11 4.9 101510 44
2003-04-09 13:05 51°14.496 2°51.098 16.7 10 4.9 101500 44
2003-04-09 13:06 51°14.567 2°51.401 18.3 8 5 101500 47
2003-04-09 13:07 51°14.636 2°51.702 18.1 7 5 101500 46
2003-04-09 13:08 51°14.706 2°52.006 17 4 5 101500 44
2003-04-09 13:09 51°14.771 2°52.314 18.3 17 4.9 101500 45
2003-04-09 13:10 51°14.812 2°52.634 17.4 21 5 101490 45
2003-04-09 13:11 51°14.843 2°52.958 15.3 20 4.9 101490 45
2003-04-09 13:12 51°14.829 2°53.286 14.1 33 4.9 101470 39
2003-04-09 13:13 51°14.79 2°53.617 15.4 36 5 101470 46
2003-04-09 13:14 51°14.748 2°53.951 17.4 35 5 101470 42
2003-04-09 13:15 51°14.678 2°54.274 16.6 41 5 101470 47
2003-04-09 13:16 51°14.587 2°54.565 15.4 134 5 101460 47
2003-04-09 13:17 51°14.476 2°54.832 13.1 46 5.1 101470 49
2003-04-09 13:18 51°14.356 2°55.088 9.8 25 5 101470 47
2003-04-09 13:19 51°14.25 2°55.287 8.5 56 5.1 101520 49
2003-04-09 13:20 51°14.162 2°55.381 7.3 84 5.1 101520 45
2003-04-09 13:21 51°14.083 2°55.439 6.3 100 5.1 101530 42
2003-04-09 13:22 51°14.007 2°55.496 5.3 87 5.1 101520 41
2003-04-09 13:23 51°13.927 2°55.553 6.7 80 5.4 101520 42
2003-04-09 13:24 51°13.847 2°55.613 6.2 90 5.4 101520 39
2003-04-09 13:25 51°13.771 2°55.686 7.4 85 5.4 101530 40
2003-04-09 13:26 51°13.713 2°55.777 6.2 66 5.6 101500 41
2003-04-09 13:27 51°13.673 2°55.87 5.8 64 5.8 101510 39
2003-04-09 13:28 51°13.639 2°55.955 2.9 68 5.9 101510 38
2003-04-09 13:29 51°13.613 2°56.032 6.4 41 6.1 101500 38
2003-04-09 13:30 51°13.601 2°56.092 8.4 85 6.2 101500 35
2003-04-09 13:32 51°13.6 2°56.102 5 79 6.2 101500 35